Regional Weather Roundup
Issued by NWS

Home | Current Version | Previous Version | Graphics & Text | Print | Product List | Glossary On
Versions: 1 2 3 4 5 6 7 8 9 10 11 12 13 14 15 16 17 18 19 20 21 22 23 24 25 26 27 28 29 30 31 32 33 34 35 36 37 38 39 40 41 42 43 44 45 46 47 48 49 50
000
ASUS45 KPSR 012100
RWRAZ

PRELIMINARY ARIZONA REGIONAL HOURLY WEATHER ROUNDUP
NATIONAL WEATHER SERVICE PHOENIX AZ
200 PM MST FRI AUG 01 2014

NOTE: FAIR INDICATES FEW OR NO CLOUDS BELOW 12,000 FEET WITH NO
SIGNIFICANT WEATHER AND/OR OBSTRUCTIONS TO VISIBILITY.

AZZ001>003-036-012200-
NORTHWEST ARIZONA

CITY           SKY/WX    TMP DP  RH WIND       PRES   REMARKS
KINGMAN        SUNNY     96  50  20 SW17G24   30.06F
$$

AZZ004>008-015-016-018-012200-
NORTH CENTRAL ARIZONA

CITY           SKY/WX    TMP DP  RH WIND       PRES   REMARKS
GRAND CANYON   PTSUNNY   82  48  30 W8        30.28F
WILLIAMS       MOSUNNY   77  52  41 W8        30.36F
PRESCOTT       MOSUNNY   87  49  26 W9G16     30.18F
FLAGSTAFF      TSTM      59  52  77 MISG      30.35S
PAYSON         PTSUNNY   84  52  32 N13G18    30.20S
PAGE           MOSUNNY   94  45  18 NE6       30.07F
$$

AZZ009>014-017-012200-
NORTHEAST ARIZONA

CITY           SKY/WX    TMP DP  RH WIND       PRES   REMARKS
WINSLOW        NOT AVBL
SAINT JOHNS    MOSUNNY   85  47  26 CALM      30.17F
WINDOW ROCK    PTSUNNY   78  49  35 VRB5      30.27F
$$

AZZ023-012200-
GREATER PHOENIX AREA

CITY           SKY/WX    TMP DP  RH WIND       PRES   REMARKS
PHOENIX        PTSUNNY   96  61  31 S6        29.89F
BUCKEYE          N/A     90  64  43 SE6       29.92F
DEER VALLEY    PTSUNNY   96  59  29 VRB6      29.91F
SCOTTSDALE     PTSUNNY   96  59  29 W6        29.93F
MESA-GATEWAY   PTSUNNY   91  64  40 SW6       29.94F
CHANDLER       PTSUNNY   91  66  43 S8        29.92F
$$

AZZ027-028-012200-
SOUTHWEST MARICOPA COUNTY AND PINAL COUNTY

CITY           SKY/WX    TMP DP  RH WIND       PRES   REMARKS
CASA GRANDE    PTSUNNY   88  64  45 SW5       29.95F
$$

AZZ503-504-507>509-012200-
SOUTHEAST ARIZONA

CITY           SKY/WX    TMP DP  RH WIND       PRES   REMARKS
TUCSON         PTSUNNY   89  62  40 VRB6      30.01F
DAVIS-MONTHAN  PTSUNNY   89  60  38 NW5       29.99F
RYAN FIELD       N/A     90  57  33 N5        30.01F
NOGALES        CLOUDY    85  59  41 S10       30.10F
SAFFORD        MOSUNNY   91  53  27 W3        30.00F
$$

AZZ020-021-025-026-031-012200-
SOUTHWEST ARIZONA

CITY           SKY/WX    TMP DP  RH WIND       PRES   REMARKS
YUMA           NOT AVBL
$$

CAZ031-033-041-043-047-048-061-012200-
SOUTHERN CALIFORNIA

CITY           SKY/WX    TMP DP  RH WIND       PRES   REMARKS
DOWNTOWN L.A.  SUNNY     83  65  54 VRB3      29.88F
L.A. AIRPORT   MOSUNNY   75  63  66 W10       29.91F
SAN DIEGO      MOSUNNY   77  63  61 W7        29.92F
BURBANK        SUNNY     89  61  38 S10       29.88F
ONTARIO        MOSUNNY   97  61  30 W10       29.88F
RIVERSIDE      SUNNY     98  61  29 W8G21     29.87F
PALM SPRINGS   MOSUNNY  102  65  29 E10G18    29.85F HX 105
EL CENTRO NAS  MOSUNNY  108  60  21 VRB6      29.78F HX 109
IMPERIAL       MOSUNNY  109  58  18 SE14G24   29.78F HX 109
BLYTHE           N/A    N/A N/A N/A MISG      29.82F
$$

NVZ020-UTZ003-012200-
SOUTHERN NEVADA-UTAH

CITY           SKY/WX    TMP DP  RH WIND       PRES   REMARKS
LAS VEGAS      NOT AVBL
SALT LAKE CITY MOSUNNY   89  49  25 VRB6      30.11F
$$

NMZ009-TXZ055-012200-
NEW MEXICO-WEST TEXAS

CITY           SKY/WX    TMP DP  RH WIND       PRES   REMARKS
ALBUQUERQUE    MOSUNNY   79  52  38 VRB3      30.22F
EL PASO        LGT RAIN  73  65  75 E14       30.14F
$$


........................KEY........................
SKY/WX - SKY CONDITION/WEATHER
TMP    - TEMPERATURE IN FAHRENHEIT
DP     - DEW POINT IN FAHRENHEIT
RH     - RELATIVE HUMIDITY IN PERCENT
WIND   - DIRECTION AND SPEED IN MILES PER HOUR (MPH)
VRB    - VARIABLE WIND DIRECTION
PRES   - MEAN SEA LEVEL PRESSURE IN INCHES OF MERCURY
         F - FALLING PRESSURE   R - RISING PRESSURE
         S - STEADY PRESSURE
VSB    - VISIBILITY IN MILES
HX     - HEAT INDEX IN FAHRENHEIT
WCI    - WIND CHILL INDEX IN FAHRENHEIT
TC     - TEMPERATURE IN CELSIUS WHICH IS ALSO KNOWN AS
         TEMPERATURE IN CENTIGRADE
AFB    - AIR FORCE BASE
         LUKE AFB IS LUKE AIR FORCE BASE
         DAVIS-MONTHAN IS DAVIS-MONTHAN AIR FORCE BASE
NAS    - NAVAL AIR STATION
         EL CENTRO NAS IS EL CENTRO NAVAL AIR STATION
N/A    - NOT AVAILABLE



USA.gov is the U.S. government's official web portal to all federal, state and local government web resources and services.